Hourly Data Report for January 12, 2022

TERRACE A
BRITISH COLUMBIA
Current Station Operator: NAVCAN

54°28'07.000" N
128°34'42.000" W
217.30 m
1068134
71951
YXT

Download Data

Hourly Data (January 2022)
Hourly Data Report for January 12, 2022
TIME
LST
Temp Definition
°C
Dew Point Definition
°C
Rel Hum Definition
%
Precip. Amount Definition
mm

Wind Dir Definition
10's deg

Wind Spd Definition
km/h
Visibility Definition
km
Stn Press Definition
kPa
Hmdx Definition


Wind Chill Definition


Weather Definition


00:00 0.9 0.9 100 LegendMM 36 1 3.2 98.55     Rain, Fog
01:00 0.7 0.7 100 LegendMM 36 1 3.2 98.63     Rain, Fog
02:00 1.1 1.1 100 LegendMM 36 2 3.2 98.69     Rain, Fog
03:00 1.2 1.2 100 LegendMM 36 3 2.4 98.77     Rain, Fog
04:00 0.8 0.8 100 LegendMM 10 4 1.2 98.81     Drizzle, Fog
05:00 0.5 0.5 100 LegendMM 36 2 1.2 98.84     Drizzle, Fog
06:00 1.0 1.0 100 LegendMM 15 4 1.6 98.88     Drizzle, Fog
07:00 1.0 1.0 100 LegendMM 17 8 1.6 98.88     Drizzle, Fog
08:00 0.8 0.8 100 LegendMM 36 2 0.8 98.89     Drizzle, Fog
09:00 0.7 0.7 100 LegendMM 36 2 0.6 98.92     Drizzle, Fog
10:00 0.8 0.8 100 LegendMM 36 1 1.2 98.93     Drizzle, Fog
11:00 0.7 0.7 100 LegendMM 30 4 0.6 98.93     Drizzle, Fog
12:00 0.9 0.9 100 LegendMM 29 7 0.8 98.92     Drizzle, Fog
13:00 0.9 0.9 100 LegendMM 35 8 0.8 98.84     Drizzle, Fog
14:00 1.5 1.5 100 LegendMM 36 12 1.6 98.77     Drizzle, Fog
15:00 1.7 1.7 100 LegendMM 36 14 2.4 98.76     Drizzle, Fog
16:00 1.4 1.4 100 LegendMM 34 16 3.2 98.73     Fog
17:00 1.9 1.9 100 LegendMM 2 9 6.4 98.67     Fog
18:00 1.0 1.0 100 LegendMM 5 8 0.8 98.70     Fog
19:00 1.9 1.9 100 LegendMM 36 25 3.2 98.74     Fog
20:00 2.1 1.6 96 LegendMM 36 23 6.4 98.79     Rain, Fog
21:00 1.6 1.1 97 LegendMM 36 24 16.1 98.83     Rain
22:00 1.1 0.5 96 LegendMM 32 28 24.1 98.88     Mainly Clear
23:00 1.1 0.6 97 LegendMM 1 14 24.1 98.94     LegendNANA

Notes on Data Quality.

Legend

  • E = Estimated
  • M = Missing
  • NA = Not Available*
  • [empty] = Indicates an unobserved value
Date modified: